Вернуться в каталог

USA 559

АктивенВоенныеVLEO
NORAD 65705·PAYLOAD·🇺🇸 United States

Запущен Sep 22, 2025 с Vandenberg Space Force Base

Loading…

Ближайшие Пролёты (ближайшие 24 часа)

TLE

УстаревшееSource: Mike McCants

Эпоха: Aug 20, 2026, 01:49 UTC

1 65705U 25213B   26232.07619895 0.00000000  00000-0  00000-0 0    09
2 65705  70.0152 226.5822 0003000 334.7533  25.2467 14.96713510    01

Отслеживайте USA 559 в реальном времени с AllMySat

Download on the App Store